Kankakee, IL

3:27 PM CST on December 06, 2019 (GMT -0600)
Greater Kankakee

Weather History for KIKK - October, 2019

Change the Weather History Date:

Saturday, October 19, 2019

  Actual Average Record
Temperature  
Mean Temperature 53 °F -  
Max Temperature 69 °F 59 °F 76 °F (1979)
Min Temperature 37 °F 36 °F 22 °F (1992)
Degree Days  
Heating Degree Days 12    
Growing Degree Days 3 (Base 50)    
Moisture  
Dew Point 41 °F    
Average Humidity 67    
Maximum Humidity 95    
Minimum Humidity 35    
Precipitation  
Precipitation 0.00 in - - ()
Sea Level Pressure  
Sea Level Pressure 29.83 in    
Wind  
Wind Speed 6 mph (SSE)    
Max Wind Speed 13 mph    
Max Gust Speed 21 mph    
Visibility 10 miles    
Events Rain    
Averages and records for this station are not official NWS values.
T = Trace of Precipitation, MM = Missing Value Source: NWS Daily Summary

Daily Weather History Graph

Daily Weather History Graph

Search for Another Location

Airport or City:

Astronomy

Oct. 19, 2019 Rise Set
Actual Time 7:07 AM CDT 6:04 PM CDT
Civil Twilight 6:39 AM CDT 6:32 PM CDT
Nautical Twilight 6:07 AM CDT 7:04 PM CDT
Astronomical Twilight 5:35 AM CDT 7:36 PM CDT
Moon 10:11 PM CDT (10/19) 12:41 PM CDT (10/19)
Length of Visible Light 11h 53m
Length of Day
10h 57m
Waning Gibbous, 69% of the Moon is Illuminated
Oct 19
Waning Gibbous
Oct 21
Last Quarter
Oct 27
New
Nov 4
First Quarter
Nov 12
Full

Hourly Weather History & Observations

Time (CDT) Temp. Windchill Dew Point Humidity Pressure Visibility Wind Dir Wind Speed Gust Speed Precip Events Conditions
12:15 AM 40.8 °F 36.9 °F 36.5 °F 85% 29.92 in 10.0 mi SE 5.8 mph - N/A   Clear
12:35 AM 39.6 °F 35.4 °F 36.3 °F 88% 29.92 in 10.0 mi SE 5.8 mph - N/A   Clear
12:55 AM 39.9 °F 36.7 °F 36.3 °F 87% 29.91 in 10.0 mi SE 4.6 mph - N/A   Clear
1:15 AM 40.6 °F - 36.9 °F 86% 29.92 in 10.0 mi Calm Calm - N/A   Clear
1:35 AM 40.3 °F 37.1 °F 36.7 °F 87% 29.92 in 10.0 mi SE 4.6 mph - N/A   Clear
1:55 AM 39.2 °F 35.9 °F 36.0 °F 88% 29.91 in 10.0 mi SE 4.6 mph - N/A   Clear
2:15 AM 39.7 °F 35.6 °F 36.5 °F 88% 29.91 in 10.0 mi SE 5.8 mph - N/A   Clear
2:35 AM 39.6 °F 35.4 °F 36.1 °F 88% 29.91 in 10.0 mi SE 5.8 mph - N/A   Clear
2:55 AM 38.7 °F 34.3 °F 35.6 °F 89% 29.90 in 10.0 mi SE 5.8 mph - N/A   Clear
3:15 AM 39.2 °F 35.0 °F 36.7 °F 91% 29.90 in 10.0 mi SE 5.8 mph - N/A   Clear
3:35 AM 39.2 °F 34.2 °F 36.5 °F 90% 29.89 in 10.0 mi SE 6.9 mph - N/A   Clear
3:55 AM 39.2 °F 35.0 °F 37.0 °F 92% 29.89 in 10.0 mi SE 5.8 mph - N/A   Clear
4:15 AM 39.2 °F 35.0 °F 37.2 °F 93% 29.89 in 10.0 mi SE 5.8 mph - N/A   Clear
4:35 AM 39.6 °F 36.3 °F 37.4 °F 92% 29.90 in 10.0 mi SE 4.6 mph - N/A   Clear
4:55 AM 40.6 °F 36.7 °F 37.8 °F 89% 29.90 in 10.0 mi SE 5.8 mph - N/A   Clear
5:15 AM 39.9 °F 36.7 °F 37.2 °F 90% 29.90 in 10.0 mi SE 4.6 mph - N/A   Clear
5:35 AM 39.4 °F 37.2 °F 37.4 °F 93% 29.90 in 10.0 mi SE 3.5 mph - N/A   Clear
5:55 AM 40.1 °F 38.0 °F 37.4 °F 90% 29.90 in 10.0 mi SE 3.5 mph - N/A   Clear
6:15 AM 40.3 °F - 37.4 °F 89% 29.90 in 10.0 mi Calm Calm - N/A   Clear
6:35 AM 39.9 °F 36.7 °F 37.0 °F 89% 29.90 in 10.0 mi SE 4.6 mph - N/A   Clear
6:55 AM 38.8 °F 35.4 °F 36.7 °F 92% 29.89 in 10.0 mi SE 4.6 mph - N/A   Clear
7:15 AM 37.9 °F 34.4 °F 36.5 °F 95% 29.89 in 10.0 mi SE 4.6 mph - N/A   Clear
7:35 AM 39.2 °F 35.9 °F 37.0 °F 92% 29.89 in 10.0 mi SE 4.6 mph - N/A   Clear
7:55 AM 40.6 °F 37.5 °F 38.3 °F 91% 29.90 in 10.0 mi SE 4.6 mph - N/A   Clear
8:15 AM 43.0 °F 41.3 °F 39.7 °F 88% 29.90 in 10.0 mi SE 3.5 mph - N/A   Clear
8:35 AM 45.1 °F 42.8 °F 40.6 °F 84% 29.90 in 10.0 mi SE 4.6 mph - N/A   Clear
8:55 AM 48.2 °F - 42.3 °F 80% 29.89 in 10.0 mi SE 5.8 mph - N/A   Clear
9:15 AM 50.5 °F - 41.2 °F 70% 29.89 in 10.0 mi SSE 5.8 mph - N/A   Clear
9:35 AM 53.1 °F - 42.4 °F 67% 29.89 in 10.0 mi SSE 8.1 mph - N/A   Clear
9:55 AM 55.2 °F - 42.1 °F 61% 29.88 in 10.0 mi South 8.1 mph - N/A   Clear
10:15 AM 57.4 °F - 42.6 °F 58% 29.87 in 10.0 mi South 8.1 mph - N/A   Clear
10:35 AM 59.0 °F - 42.6 °F 55% 29.87 in 10.0 mi South 8.1 mph - N/A   Clear
10:55 AM 60.1 °F - 42.3 °F 52% 29.86 in 10.0 mi SSW 9.2 mph - N/A   Clear
11:15 AM 61.7 °F - 43.2 °F 51% 29.85 in 10.0 mi South 11.5 mph - N/A   Clear
11:35 AM 64.4 °F - 43.3 °F 46% 29.85 in 10.0 mi SSW 10.4 mph - N/A   Clear
11:55 AM 63.7 °F - 43.0 °F 47% 29.84 in 10.0 mi South 9.2 mph - N/A   Clear
12:15 PM 65.5 °F - 43.2 °F 44% 29.83 in 10.0 mi South 11.5 mph 16.1 mph N/A   Clear
12:35 PM 66.4 °F - 42.4 °F 42% 29.82 in 10.0 mi South 11.5 mph 18.4 mph N/A   Clear
12:55 PM 67.1 °F - 42.4 °F 41% 29.80 in 10.0 mi South 12.7 mph 18.4 mph N/A   Clear
1:15 PM 67.3 °F - 40.8 °F 38% 29.79 in 10.0 mi SSW 12.7 mph 19.6 mph N/A   Clear
1:35 PM 67.8 °F - 40.3 °F 37% 29.77 in 10.0 mi SSW 12.7 mph 20.7 mph N/A   Clear
1:55 PM 66.2 °F - 40.1 °F 38% 29.76 in 10.0 mi South 12.7 mph 16.1 mph N/A   Clear
2:55 PM 69.4 °F - 40.5 °F 35% 29.75 in 10.0 mi South 12.7 mph 18.4 mph N/A   Clear
3:15 PM 69.1 °F - 40.1 °F 35% 29.74 in 10.0 mi SSW 11.5 mph 18.4 mph N/A   Clear
3:35 PM 68.9 °F - 40.3 °F 35% 29.74 in 10.0 mi South 11.5 mph 18.4 mph N/A   Clear
3:55 PM 67.8 °F - 40.6 °F 37% 29.74 in 10.0 mi South 8.1 mph 17.3 mph N/A   Clear
4:15 PM 67.5 °F - 40.8 °F 38% 29.74 in 10.0 mi South 11.5 mph - N/A   Clear
4:35 PM 67.6 °F - 41.4 °F 38% 29.74 in 10.0 mi South 5.8 mph - N/A   Clear
4:55 PM 66.4 °F - 42.1 °F 41% 29.74 in 10.0 mi South 3.5 mph - N/A   Clear
5:15 PM 65.5 °F - 41.7 °F 42% 29.75 in 10.0 mi Calm Calm - N/A   Clear
5:35 PM 64.4 °F - 40.8 °F 42% 29.75 in 10.0 mi SSW 4.6 mph - N/A   Clear
5:55 PM 64.4 °F - 39.6 °F 40% 29.76 in 10.0 mi SSW 5.8 mph - N/A   Clear
6:15 PM 62.8 °F - 40.5 °F 44% 29.76 in 10.0 mi South 4.6 mph - N/A   Clear
6:35 PM 62.1 °F - 41.2 °F 46% 29.76 in 10.0 mi South 4.6 mph - N/A   Scattered Clouds
6:55 PM 61.2 °F - 42.4 °F 50% 29.76 in 10.0 mi South 4.6 mph - N/A   Mostly Cloudy
7:15 PM 61.7 °F - 43.3 °F 51% 29.76 in 10.0 mi South 5.8 mph - N/A   Overcast
7:35 PM 61.5 °F - 43.9 °F 52% 29.76 in 10.0 mi South 6.9 mph - N/A   Overcast
7:55 PM 61.9 °F - 43.9 °F 52% 29.76 in 10.0 mi South 6.9 mph - N/A   Overcast
8:15 PM 60.8 °F - 44.6 °F 55% 29.76 in 10.0 mi South 6.9 mph - N/A   Overcast
8:35 PM 60.1 °F - 45.1 °F 58% 29.76 in 10.0 mi South 6.9 mph - N/A   Overcast
8:55 PM 60.1 °F - 45.1 °F 58% 29.77 in 10.0 mi SSW 6.9 mph - N/A   Overcast
9:15 PM 59.5 °F - 46.2 °F 61% 29.78 in 10.0 mi SW 4.6 mph - N/A   Overcast
9:35 PM 57.7 °F - 48.0 °F 70% 29.78 in 10.0 mi SW 5.8 mph - N/A Rain Light Rain
9:55 PM 56.7 °F - 48.7 °F 75% 29.78 in 10.0 mi SW 5.8 mph - N/A Rain Light Rain
10:35 PM 55.4 °F - 49.6 °F 81% 29.78 in 10.0 mi SW 3.5 mph - N/A   Overcast
10:55 PM 56.3 °F - 48.9 °F 76% 29.78 in 10.0 mi Calm Calm - N/A   Overcast
11:15 PM 56.3 °F - 48.6 °F 75% 29.77 in 10.0 mi Calm Calm - N/A   Overcast
11:35 PM 55.2 °F - 49.8 °F 82% 29.78 in 10.0 mi Calm Calm - N/A   Overcast
11:55 PM 55.2 °F - 49.3 °F 80% 29.78 in 10.0 mi Calm Calm - N/A   Overcast